Terug naar catalogus

STARLINK-32930

ActiefCommunicatieVLEO
NORAD 63203·PAYLOAD·🇺🇸 United States

Gelanceerd Mar 13, 2025 vanaf Cape Canaveral Space Force Station

Loading…

Volgende Passages (komende 24 uur)

TLE

VersSource: CelesTrak SupGP

Epoch: Sep 15, 2026, 02:54 UTC

1 63203C 25048W   26258.12131944  .00011426  00000+0  41373-3 0  2583
2 63203  43.0028  95.7729 0001496 272.0134 322.8672 15.27582371    13

Volg STARLINK-32930 in realtime met AllMySat

Download on the App Store